Back to catalog

STARLINK-3085

AliveCommunicationsVLEO
NORAD 49156·PAYLOAD·🇺🇸 United States

Launched Sep 14, 2021 from Vandenberg Space Force Base

Loading…

Next Passes (next 24 hours)

TLE

FreshSource: CelesTrak SupGP

Epoch: Sep 14, 2026, 21:17 UTC

1 49156C 21082AC  26257.88729167 -.00034077  00000+0 -28559-2 0  2578
2 49156  69.9999 137.4127 0002634 267.8818 165.4963 14.98347422    17

Track STARLINK-3085 in real time with AllMySat

Download on the App Store